Flag for Dominican Republic Weather past 2 weeks in Santiago de los Caballeros, Dominican Republic

Now
93 °F

Scattered clouds.


Feels Like: 105 °F
Forecast: 73 / 89 °F
Wind: 13 mph from Southeast

Location: Santiago

Current Time: Jul 31, 2014 at 3:00:08 PM

Latest Report: Jul 31, 2014 at 2:00 PM


Visibility: N/A

Pressure: 29.95 "Hg

Humidity: 56%

Dew point: 75 °F

Location of Santiago de los CaballerosLocation

Historic Weather in Santiago de los Caballeros — Graph

°F

Santiago de los Caballeros temperature yesterday

Maximum temperature yesterday: 93 °F (at 3:00 PM)
Minimum temperature yesterday: 72 °F (at 5:00 AM)
Average temperature yesterday: 81 °F

Past Weeks' High & Low Weather Summary

 TemperatureHumidityPressure
High95 °F (Jul 29, 4:00 PM)100% (Jul 17, 6:00 AM)30.12 "Hg (Jul 17, 6:00 AM)
Low72 °F (Jul 30, 5:00 AM)41% (Jul 27, 3:00 PM)29.92 "Hg (Jul 29, 3:00 PM)
Average82 °F77%30.03 "Hg
* Reported Jul 16 2:00 PM — Jul 31 2:00 PM, Santiago de los Caballeros, Weather by CustomWeather, © 2014

Note: Actual official high and low records may vary slightly from our data, if they occured in-between our weather recording intervals... More about our weather records

Advertising

Santiago de los Caballeros weather history for previous 24 hours

 ConditionsComfort  
Time TempWeatherWind HumidityBarometerVisibility
2:00 PM
Jul 31
93 °FScattered clouds.13 mph56%29.95 "HgN/A
1:00 PM90 °FScattered clouds.14 mph59%29.95 "HgN/A
12:00 PM90 °FScattered clouds.12 mph59%29.98 "HgN/A
11:00 AM88 °FScattered clouds.12 mph62%29.98 "HgN/A
10:00 AM82 °FPassing clouds.12 mph74%30.01 "HgN/A
9:00 AM81 °FPassing clouds.9 mph84%30.01 "HgN/A
8:00 AM77 °FPassing clouds.7 mph89%29.98 "HgN/A
6:00 AM72 °FMild.5 mph100%29.98 "HgN/A
5:00 AM73 °FPassing clouds.5 mph100%29.98 "HgN/A
4:00 AM73 °FPassing clouds.5 mph94%29.98 "HgN/A
3:00 AM75 °FPassing clouds.No wind94%29.98 "HgN/A
2:00 AM75 °FPassing clouds.5 mph94%30.01 "HgN/A
1:00 AM75 °FPassing clouds.5 mph94%30.01 "HgN/A
12:00 AM77 °FPartly cloudy.5 mph89%30.01 "HgN/A
11:00 PM
Jul 30
79 °FPartly cloudy.9 mph84%30.01 "HgN/A
10:00 PM79 °FPartly cloudy.6 mph84%30.01 "HgN/A
9:00 PM81 °FLight rain. Passing clouds.7 mph79%30.01 "Hg5 mi
8:00 PM81 °FThundershowers. Partly cloudy.8 mph79%29.98 "HgN/A
7:00 PM82 °FThundershowers. Partly sunny.10 mph74%29.98 "HgN/A
6:00 PM84 °FBroken clouds.13 mph70%29.95 "HgN/A
5:00 PM90 °FBroken clouds.12 mph59%29.92 "HgN/A
4:00 PM91 °FPartly sunny.14 mph56%29.95 "HgN/A
3:00 PM93 °FScattered clouds.14 mph53%29.95 "HgN/A
Weather by CustomWeather, © 2014

See weather overviewHow to use our weather pages